| time (UTC) | temp C | wind direction | speed KPH | gust KPH | rain 1hr cm | rain 24hr cm | rain mn cm | humidity % | barometer mb |
| 20260507023505 | 21 | 251 | 0.0 | 0.0 | 0.03 | 0.41 | 0.41 | 93 | 1011.4 |
| 20260507022505 | 21 | 260 | 0.0 | 0.0 | 0.03 | 0.41 | 0.41 | 93 | 1011.4 |
| 20260507022005 | 21 | 260 | 0.0 | 0.0 | 0.03 | 0.41 | 0.41 | 93 | 1011.4 |
| 20260507021505 | 21 | 260 | 0.0 | 0.0 | 0.03 | 0.41 | 0.41 | 93 | 1011.4 |
| 20260507021006 | 21 | 260 | 0.0 | 0.0 | 0.03 | 0.41 | 0.41 | 93 | 1011.4 |
| 20260507020505 | 21 | 253 | 0.0 | 0.0 | 0.03 | 0.41 | 0.41 | 93 | 1011.4 |
| 20260507020005 | 21 | 162 | 0.0 | 0.0 | 0.03 | 0.41 | 0.41 | 93 | 1011.4 |
| 20260507015005 | 21 | 186 | 0.0 | 0.0 | 0.00 | 0.38 | 0.38 | 93 | 1011.4 |
| 20260507014005 | 21 | 171 | 0.0 | 0.0 | 0.00 | 0.38 | 0.38 | 93 | 1011.4 |
| 20260507013505 | 21 | 171 | 0.0 | 0.0 | 0.00 | 0.38 | 0.38 | 93 | 1011.4 |
| 20260507012506 | 21 | 171 | 0.0 | 0.0 | 0.00 | 0.38 | 0.38 | 93 | 1011.4 |
| 20260507012005 | 21 | 171 | 0.0 | 0.0 | 0.00 | 0.38 | 0.38 | 93 | 1011.4 |
| 20260507010506 | 21 | 171 | 0.0 | 0.0 | 0.03 | 0.38 | 0.38 | 93 | 1011.4 |
| 20260507010005 | 21 | 171 | 0.0 | 0.0 | 0.03 | 0.38 | 0.38 | 92 | 1011.4 |
| 20260507005505 | 21 | 171 | 0.0 | 0.0 | 0.03 | 0.38 | 0.38 | 92 | 1011.4 |
| 20260507004505 | 21 | 144 | 0.0 | 1.6 | 0.08 | 0.38 | 0.38 | 92 | 1011.4 |
| 20260507004005 | 21 | 118 | 0.0 | 1.6 | 0.08 | 0.38 | 0.38 | 92 | 1011.4 |
| 20260507003505 | 21 | 118 | 0.0 | 1.6 | 0.08 | 0.38 | 0.38 | 93 | 1011.4 |
| 20260507003006 | 21 | 118 | 0.0 | 1.6 | 0.08 | 0.38 | 0.38 | 92 | 1011.7 |
| 20260507002505 | 21 | 202 | 0.0 | 0.0 | 0.08 | 0.38 | 0.38 | 92 | 1011.7 |
| 20260507002005 | 21 | 202 | 0.0 | 3.2 | 0.08 | 0.38 | 0.38 | 92 | 1011.7 |
| 20260507001505 | 21 | 202 | 0.0 | 3.2 | 0.08 | 0.38 | 0.38 | 92 | 1011.7 |
| 20260507001006 | 21 | 207 | 0.0 | 4.8 | 0.05 | 0.36 | 0.36 | 92 | 1011.7 |
| 20260507000505 | 21 | 237 | 1.6 | 4.8 | 0.05 | 0.36 | 0.36 | 92 | 1011.7 |
| 20260507000005 | 21 | 200 | 0.0 | 1.6 | 0.05 | 0.36 | 0.36 | 92 | 1011.7 |
| 20260506235505 | 21 | 199 | 0.0 | 1.6 | 0.05 | 0.36 | 0.36 | 92 | 1011.7 |
| 20260506235007 | 21 | 199 | 0.0 | 1.6 | 0.05 | 0.36 | 0.36 | 92 | 1011.7 |
| 20260506234505 | 21 | 199 | 0.0 | 1.6 | 0.08 | 0.33 | 0.33 | 92 | 1011.7 |
| 20260506234005 | 21 | 199 | 0.0 | 1.6 | 0.15 | 0.30 | 0.30 | 92 | 1011.0 |
| 20260506233005 | 21 | 199 | 0.0 | 1.6 | 0.30 | 0.30 | 0.30 | 92 | 1011.0 |
| 20260506232506 | 21 | 199 | 0.0 | 1.6 | 0.30 | 0.30 | 0.30 | 91 | 1011.0 |
| 20260506232006 | 21 | 199 | 0.0 | 1.6 | 0.30 | 0.30 | 0.30 | 92 | 1011.0 |
| 20260506231505 | 21 | 199 | 0.0 | 1.6 | 0.30 | 0.30 | 0.30 | 91 | 1011.0 |
| 20260506231005 | 21 | 190 | 0.0 | 1.6 | 0.30 | 0.30 | 0.30 | 91 | 1011.0 |
| 20260506230506 | 21 | 254 | 0.0 | 1.6 | 0.30 | 0.30 | 0.30 | 91 | 1011.0 |
| 20260506230005 | 21 | 224 | 1.6 | 3.2 | 0.30 | 0.30 | 0.30 | 91 | 1011.0 |
| 20260506225504 | 21 | 223 | 1.6 | 9.7 | 0.30 | 0.30 | 0.30 | 90 | 1011.0 |
| 20260506224505 | 22 | 1 | 1.6 | 4.8 | 0.30 | 0.30 | 0.30 | 88 | 1011.0 |
| 20260506223505 | 23 | 229 | 1.6 | 8.0 | 0.20 | 0.20 | 0.20 | 82 | 1011.0 |
| 20260506223005 | 24 | 216 | 3.2 | 11.3 | 0.00 | 0.00 | 0.00 | 78 | 1011.0 |
| 20260506222505 | 24 | 198 | 1.6 | 8.0 | 0.00 | 0.00 | 0.00 | 77 | 1011.0 |
| 20260506222006 | 24 | 75 | 1.6 | 4.8 | 0.00 | 0.00 | 0.00 | 77 | 1011.0 |
| 20260506221505 | 24 | 300 | 1.6 | 4.8 | 0.00 | 0.00 | 0.00 | 77 | 1011.0 |
| 20260506221005 | 24 | 70 | 3.2 | 4.8 | 0.00 | 0.00 | 0.00 | 77 | 1012.0 |
| 20260506220505 | 24 | 194 | 3.2 | 9.7 | 0.00 | 0.00 | 0.00 | 76 | 1012.0 |
| 20260506220006 | 25 | 250 | 3.2 | 8.0 | 0.00 | 0.00 | 0.00 | 75 | 1012.0 |
| 20260506215006 | 25 | 195 | 1.6 | 8.0 | 0.00 | 0.00 | 0.00 | 75 | 1012.0 |
| 20260506214505 | 25 | 264 | 3.2 | 8.0 | 0.00 | 0.00 | 0.00 | 75 | 1012.0 |
| 20260506214006 | 25 | 262 | 1.6 | 11.3 | 0.00 | 0.00 | 0.00 | 75 | 1012.0 |
| 20260506213505 | 25 | 236 | 4.8 | 11.3 | 0.00 | 0.00 | 0.00 | 74 | 1012.0 |
| 20260506213004 | 25 | 0 | 3.2 | 9.7 | 0.00 | 0.00 | 0.00 | 75 | 1012.0 |
| 20260506212006 | 25 | 169 | 1.6 | 9.7 | 0.00 | 0.00 | 0.00 | 75 | 1012.0 |
| 20260506211505 | 25 | 298 | 1.6 | 9.7 | 0.00 | 0.00 | 0.00 | 74 | 1012.0 |
| 20260506211005 | 25 | 213 | 3.2 | 8.0 | 0.00 | 0.00 | 0.00 | 73 | 1012.0 |
| 20260506210505 | 25 | 19 | 1.6 | 4.8 | 0.00 | 0.00 | 0.00 | 73 | 1012.0 |
| 20260506210005 | 25 | 3 | 1.6 | 8.0 | 0.00 | 0.00 | 0.00 | 73 | 1012.0 |
| 20260506205505 | 25 | 216 | 3.2 | 8.0 | 0.00 | 0.00 | 0.00 | 72 | 1012.0 |
| 20260506205006 | 25 | 274 | 3.2 | 8.0 | 0.00 | 0.00 | 0.00 | 71 | 1012.0 |
| 20260506204005 | 25 | 163 | 3.2 | 14.5 | 0.00 | 0.00 | 0.00 | 71 | 1012.0 |
| 20260506203505 | 25 | 253 | 1.6 | 4.8 | 0.00 | 0.00 | 0.00 | 72 | 1012.0 |
| 20260506203005 | 25 | 130 | 1.6 | 4.8 | 0.00 | 0.00 | 0.00 | 71 | 1012.0 |
| 20260506202505 | 25 | 224 | 1.6 | 4.8 | 0.00 | 0.00 | 0.00 | 71 | 1012.0 |
| 20260506202005 | 25 | 58 | 1.6 | 8.0 | 0.00 | 0.00 | 0.00 | 71 | 1012.6 |
| 20260506201505 | 25 | 221 | 3.2 | 8.0 | 0.00 | 0.00 | 0.00 | 71 | 1012.6 |
| 20260506201006 | 25 | 156 | 3.2 | 12.9 | 0.00 | 0.00 | 0.00 | 70 | 1012.6 |
| 20260506200505 | 25 | 152 | 1.6 | 9.7 | 0.00 | 0.00 | 0.00 | 70 | 1012.6 |
| 20260506195005 | 25 | 183 | 3.2 | 19.3 | 0.00 | 0.00 | 0.00 | 68 | 1012.7 |
| 20260506194505 | 26 | 200 | 3.2 | 19.3 | 0.00 | 0.00 | 0.00 | 67 | 1012.7 |
| 20260506194005 | 26 | 359 | 3.2 | 11.3 | 0.00 | 0.00 | 0.00 | 67 | 1012.7 |
| 20260506193506 | 26 | 91 | 3.2 | 8.0 | 0.00 | 0.00 | 0.00 | 67 | 1012.7 |
| 20260506193005 | 26 | 241 | 3.2 | 8.0 | 0.00 | 0.00 | 0.00 | 67 | 1013.5 |
| 20260506192505 | 26 | 211 | 3.2 | 9.7 | 0.00 | 0.00 | 0.00 | 67 | 1013.5 |
| 20260506192006 | 26 | 340 | 1.6 | 4.8 | 0.00 | 0.00 | 0.00 | 66 | 1013.5 |
| 20260506191506 | 26 | 244 | 3.2 | 4.8 | 0.00 | 0.00 | 0.00 | 65 | 1013.5 |
| 20260506191007 | 27 | 356 | 3.2 | 4.8 | 0.00 | 0.00 | 0.00 | 63 | 1013.5 |
| 20260506190504 | 27 | 86 | 3.2 | 4.8 | 0.00 | 0.00 | 0.00 | 63 | 1013.5 |
| 20260506190007 | 27 | 251 | 3.2 | 11.3 | 0.00 | 0.00 | 0.00 | 62 | 1013.5 |
| 20260506185506 | 27 | 187 | 3.2 | 11.3 | 0.00 | 0.00 | 0.00 | 63 | 1013.5 |
| 20260506185005 | 27 | 178 | 1.6 | 4.8 | 0.00 | 0.00 | 0.00 | 65 | 1013.5 |
| 20260506184505 | 27 | 32 | 3.2 | 11.3 | 0.00 | 0.00 | 0.00 | 64 | 1013.5 |
| 20260506184005 | 27 | 117 | 1.6 | 4.8 | 0.00 | 0.00 | 0.00 | 65 | 1013.5 |
| 20260506183006 | 26 | 327 | 1.6 | 11.3 | 0.00 | 0.00 | 0.00 | 65 | 1013.5 |
| 20260506182506 | 26 | 260 | 1.6 | 9.7 | 0.00 | 0.00 | 0.00 | 67 | 1013.5 |
| 20260506182005 | 26 | 245 | 0.0 | 16.1 | 0.00 | 0.00 | 0.00 | 66 | 1013.5 |
| 20260506181505 | 26 | 225 | 4.8 | 16.1 | 0.00 | 0.00 | 0.00 | 65 | 1013.5 |
| 20260506180506 | 26 | 170 | 1.6 | 12.9 | 0.00 | 0.00 | 0.00 | 66 | 1013.5 |
| 20260506175505 | 26 | 27 | 0.0 | 8.0 | 0.00 | 0.00 | 0.00 | 66 | 1013.5 |
| 20260506175005 | 25 | 24 | 1.6 | 4.8 | 0.00 | 0.00 | 0.00 | 65 | 1013.5 |
| 20260506174505 | 25 | 176 | 1.6 | 19.3 | 0.00 | 0.00 | 0.00 | 65 | 1013.5 |
| 20260506174005 | 26 | 191 | 3.2 | 12.9 | 0.00 | 0.00 | 0.00 | 64 | 1013.5 |
| 20260506173504 | 26 | 231 | 6.4 | 16.1 | 0.00 | 0.00 | 0.00 | 64 | 1013.5 |
| 20260506173005 | 25 | 234 | 3.2 | 8.0 | 0.00 | 0.00 | 0.00 | 66 | 1013.5 |
| 20260506172506 | 25 | 156 | 3.2 | 8.0 | 0.00 | 0.00 | 0.00 | 65 | 1013.5 |
| 20260506171005 | 26 | 149 | 4.8 | 12.9 | 0.00 | 0.00 | 0.00 | 65 | 1013.6 |
| 20260506170506 | 26 | 165 | 4.8 | 12.9 | 0.00 | 0.00 | 0.00 | 65 | 1013.6 |
| 20260506165505 | 25 | 279 | 3.2 | 16.1 | 0.00 | 0.00 | 0.00 | 67 | 1013.6 |
| 20260506165005 | 25 | 28 | 4.8 | 16.1 | 0.00 | 0.00 | 0.00 | 67 | 1013.6 |
| 20260506164505 | 25 | 245 | 3.2 | 11.3 | 0.00 | 0.00 | 0.00 | 67 | 1013.6 |
| 20260506164005 | 25 | 285 | 1.6 | 11.3 | 0.00 | 0.00 | 0.00 | 69 | 1013.9 |
| 20260506163506 | 25 | 205 | 1.6 | 4.8 | 0.00 | 0.00 | 0.00 | 69 | 1013.9 |
| 20260506163006 | 25 | 214 | 3.2 | 9.7 | 0.00 | 0.00 | 0.00 | 69 | 1013.9 |
| 20260506162505 | 25 | 196 | 3.2 | 11.3 | 0.00 | 0.00 | 0.00 | 69 | 1013.9 |
| 20260506162004 | 24 | 185 | 3.2 | 8.0 | 0.00 | 0.00 | 0.00 | 71 | 1013.9 |
| 20260506161005 | 23 | 324 | 1.6 | 8.0 | 0.00 | 0.00 | 0.00 | 72 | 1014.1 |
| 20260506160505 | 23 | 128 | 3.2 | 14.5 | 0.00 | 0.00 | 0.00 | 72 | 1014.1 |
| 20260506160005 | 23 | 196 | 4.8 | 16.1 | 0.00 | 0.00 | 0.00 | 72 | 1014.1 |
| 20260506155504 | 23 | 212 | 3.2 | 11.3 | 0.00 | 0.00 | 0.00 | 73 | 1014.1 |
| 20260506155006 | 23 | 162 | 3.2 | 11.3 | 0.00 | 0.00 | 0.00 | 75 | 1013.3 |
| 20260506153505 | 23 | 332 | 1.6 | 4.8 | 0.00 | 0.00 | 0.00 | 75 | 1013.3 |
| 20260506153005 | 22 | 166 | 3.2 | 9.7 | 0.00 | 0.00 | 0.00 | 75 | 1013.3 |
| 20260506152504 | 23 | 258 | 3.2 | 4.8 | 0.00 | 0.00 | 0.00 | 75 | 1013.3 |
| 20260506151505 | 22 | 209 | 3.2 | 14.5 | 0.00 | 0.00 | 0.00 | 77 | 1013.3 |
| 20260506151006 | 21 | 173 | 3.2 | 11.3 | 0.00 | 0.00 | 0.00 | 79 | 1013.3 |
| 20260506150505 | 21 | 19 | 3.2 | 11.3 | 0.00 | 0.00 | 0.00 | 80 | 1013.3 |
| 20260506150006 | 21 | 147 | 3.2 | 19.3 | 0.00 | 0.00 | 0.00 | 80 | 1013.3 |
| 20260506145505 | 21 | 290 | 1.6 | 9.7 | 0.00 | 0.00 | 0.00 | 80 | 1013.3 |
| 20260506145005 | 21 | 218 | 3.2 | 9.7 | 0.00 | 0.00 | 0.00 | 80 | 1013.3 |
| 20260506144505 | 21 | 223 | 3.2 | 8.0 | 0.00 | 0.00 | 0.00 | 80 | 1013.3 |
| 20260506144005 | 21 | 265 | 3.2 | 14.5 | 0.00 | 0.00 | 0.00 | 80 | 1013.3 |
| 20260506143505 | 21 | 246 | 3.2 | 14.5 | 0.00 | 0.00 | 0.00 | 80 | 1013.3 |
| 20260506143005 | 21 | 213 | 4.8 | 14.5 | 0.00 | 0.00 | 0.00 | 79 | 1013.3 |
| 20260506142505 | 21 | 273 | 1.6 | 9.7 | 0.00 | 0.00 | 0.00 | 78 | 1013.3 |
| 20260506142006 | 21 | 268 | 1.6 | 11.3 | 0.00 | 0.00 | 0.00 | 77 | 1013.3 |
| 20260506141005 | 21 | 161 | 3.2 | 11.3 | 0.00 | 0.00 | 0.00 | 77 | 1013.3 |
| 20260506140505 | 21 | 223 | 1.6 | 9.7 | 0.00 | 0.00 | 0.00 | 77 | 1013.3 |
| 20260506140005 | 21 | 242 | 1.6 | 8.0 | 0.00 | 0.00 | 0.00 | 77 | 1013.3 |
| 20260506135504 | 21 | 246 | 3.2 | 9.7 | 0.00 | 0.00 | 0.00 | 77 | 1013.3 |
| 20260506135005 | 21 | 270 | 4.8 | 16.1 | 0.00 | 0.00 | 0.00 | 77 | 1013.3 |
| 20260506134505 | 20 | 200 | 3.2 | 12.9 | 0.00 | 0.00 | 0.00 | 78 | 1013.3 |
| 20260506134005 | 21 | 252 | 3.2 | 11.3 | 0.00 | 0.00 | 0.00 | 78 | 1013.3 |
| 20260506133505 | 20 | 243 | 4.8 | 14.5 | 0.00 | 0.00 | 0.00 | 79 | 1013.3 |
| 20260506133005 | 20 | 250 | 1.6 | 8.0 | 0.00 | 0.00 | 0.00 | 80 | 1013.3 |
| 20260506132505 | 20 | 215 | 3.2 | 9.7 | 0.00 | 0.00 | 0.00 | 80 | 1013.3 |
| 20260506132005 | 20 | 223 | 0.0 | 9.7 | 0.00 | 0.00 | 0.00 | 81 | 1013.3 |
| 20260506131006 | 20 | 85 | 1.6 | 12.9 | 0.00 | 0.00 | 0.00 | 82 | 1013.3 |
| 20260506130505 | 20 | 17 | 1.6 | 4.8 | 0.00 | 0.00 | 0.00 | 82 | 1013.3 |
| 20260506130006 | 20 | 112 | 1.6 | 4.8 | 0.00 | 0.00 | 0.00 | 83 | 1013.3 |
| 20260506125505 | 20 | 252 | 0.0 | 4.8 | 0.00 | 0.00 | 0.00 | 83 | 1013.3 |
| 20260506125005 | 20 | 140 | 1.6 | 4.8 | 0.00 | 0.00 | 0.00 | 84 | 1013.3 |
| 20260506124505 | 20 | 244 | 1.6 | 4.8 | 0.00 | 0.00 | 0.00 | 85 | 1013.3 |
| 20260506124005 | 19 | 191 | 1.6 | 4.8 | 0.00 | 0.00 | 0.00 | 86 | 1013.3 |
| 20260506123506 | 19 | 242 | 0.0 | 4.8 | 0.00 | 0.00 | 0.00 | 86 | 1013.3 |
| 20260506122505 | 19 | 242 | 1.6 | 8.0 | 0.00 | 0.00 | 0.00 | 86 | 1013.3 |
| 20260506122005 | 19 | 288 | 0.0 | 3.2 | 0.00 | 0.00 | 0.00 | 86 | 1013.3 |
| 20260506121504 | 19 | 8 | 0.0 | 1.6 | 0.00 | 0.00 | 0.00 | 86 | 1013.3 |
| 20260506121004 | 19 | 201 | 0.0 | 3.2 | 0.00 | 0.00 | 0.00 | 86 | 1013.3 |
| 20260506120505 | 18 | 227 | 0.0 | 4.8 | 0.00 | 0.00 | 0.00 | 86 | 1013.3 |
| 20260506120006 | 18 | 85 | 0.0 | 4.8 | 0.00 | 0.00 | 0.00 | 86 | 1012.3 |
| 20260506115506 | 18 | 84 | 0.0 | 3.2 | 0.00 | 0.00 | 0.00 | 86 | 1012.3 |
| 20260506115006 | 18 | 113 | 1.6 | 4.8 | 0.00 | 0.00 | 0.00 | 86 | 1012.3 |
| 20260506114504 | 18 | 157 | 1.6 | 4.8 | 0.00 | 0.00 | 0.00 | 86 | 1012.3 |
| 20260506114006 | 18 | 186 | 1.6 | 3.2 | 0.00 | 0.00 | 0.00 | 86 | 1012.3 |
| 20260506113505 | 18 | 234 | 1.6 | 3.2 | 0.00 | 0.00 | 0.00 | 86 | 1012.3 |
| 20260506113005 | 18 | 231 | 0.0 | 3.2 | 0.00 | 0.00 | 0.00 | 86 | 1012.3 |
| 20260506112504 | 18 | 155 | 0.0 | 3.2 | 0.00 | 0.00 | 0.00 | 87 | 1012.3 |
| 20260506112005 | 18 | 204 | 1.6 | 8.0 | 0.00 | 0.00 | 0.00 | 87 | 1012.3 |
| 20260506111505 | 18 | 69 | 0.0 | 4.8 | 0.00 | 0.00 | 0.00 | 87 | 1012.3 |
| 20260506111005 | 18 | 217 | 0.0 | 3.2 | 0.00 | 0.00 | 0.00 | 87 | 1012.3 |
| 20260506110005 | 18 | 162 | 0.0 | 4.8 | 0.00 | 0.00 | 0.00 | 87 | 1012.3 |
| 20260506105505 | 18 | 243 | 0.0 | 1.6 | 0.00 | 0.00 | 0.00 | 87 | 1012.3 |
| 20260506105005 | 18 | 202 | 0.0 | 0.0 | 0.00 | 0.00 | 0.00 | 87 | 1012.3 |
| 20260506104505 | 18 | 187 | 0.0 | 1.6 | 0.00 | 0.00 | 0.00 | 87 | 1012.3 |
| 20260506104005 | 18 | 211 | 0.0 | 1.6 | 0.00 | 0.00 | 0.00 | 87 | 1012.3 |
| 20260506103505 | 18 | 259 | 0.0 | 0.0 | 0.00 | 0.00 | 0.00 | 87 | 1012.3 |
| 20260506103005 | 18 | 270 | 0.0 | 3.2 | 0.00 | 0.00 | 0.00 | 87 | 1012.3 |
| 20260506101505 | 18 | 135 | 1.6 | 4.8 | 0.00 | 0.00 | 0.00 | 87 | 1011.6 |
| 20260506101005 | 18 | 159 | 0.0 | 1.6 | 0.00 | 0.00 | 0.00 | 87 | 1011.6 |
| 20260506100005 | 18 | 222 | 0.0 | 1.6 | 0.00 | 0.00 | 0.00 | 86 | 1011.6 |
| 20260506095505 | 18 | 232 | 0.0 | 3.2 | 0.00 | 0.00 | 0.00 | 86 | 1011.6 |
| 20260506094505 | 18 | 234 | 0.0 | 1.6 | 0.00 | 0.00 | 0.00 | 86 | 1011.6 |
| 20260506094005 | 18 | 215 | 0.0 | 3.2 | 0.00 | 0.00 | 0.00 | 86 | 1011.6 |
| 20260506093505 | 18 | 201 | 0.0 | 3.2 | 0.00 | 0.00 | 0.00 | 86 | 1011.6 |
| 20260506093006 | 18 | 211 | 0.0 | 1.6 | 0.00 | 0.00 | 0.00 | 85 | 1011.6 |
| 20260506092005 | 18 | 197 | 0.0 | 1.6 | 0.00 | 0.00 | 0.00 | 85 | 1011.6 |
| 20260506091505 | 18 | 209 | 0.0 | 4.8 | 0.00 | 0.00 | 0.00 | 85 | 1011.6 |
| 20260506091006 | 18 | 161 | 0.0 | 4.8 | 0.00 | 0.00 | 0.00 | 85 | 1011.5 |
| 20260506090505 | 18 | 179 | 1.6 | 3.2 | 0.00 | 0.00 | 0.00 | 85 | 1011.5 |
| 20260506090006 | 18 | 353 | 0.0 | 3.2 | 0.00 | 0.00 | 0.00 | 85 | 1011.5 |
| 20260506085506 | 18 | 261 | 0.0 | 1.6 | 0.00 | 0.00 | 0.00 | 85 | 1011.5 |
| 20260506084005 | 17 | 244 | 0.0 | 0.0 | 0.00 | 0.00 | 0.00 | 85 | 1011.5 |
| 20260506083504 | 17 | 119 | 0.0 | 0.0 | 0.00 | 0.00 | 0.00 | 85 | 1011.5 |
| 20260506083006 | 17 | 281 | 0.0 | 0.0 | 0.00 | 0.00 | 0.00 | 86 | 1011.5 |
| 20260506082506 | 17 | 186 | 0.0 | 0.0 | 0.00 | 0.00 | 0.00 | 86 | 1011.5 |
| 20260506082006 | 16 | 252 | 0.0 | 0.0 | 0.00 | 0.00 | 0.00 | 85 | 1011.6 |
| 20260506081505 | 16 | 108 | 0.0 | 0.0 | 0.00 | 0.00 | 0.00 | 85 | 1011.6 |
| 20260506080505 | 16 | 155 | 0.0 | 0.0 | 0.00 | 0.00 | 0.00 | 85 | 1011.6 |
| 20260506073506 | 16 | 142 | 0.0 | 0.0 | 0.00 | 0.00 | 0.00 | 84 | 1011.6 |
| 20260506073005 | 16 | 156 | 0.0 | 0.0 | 0.00 | 0.00 | 0.00 | 83 | 1011.6 |
| 20260506072505 | 16 | 156 | 0.0 | 0.0 | 0.00 | 0.00 | 0.00 | 82 | 1011.6 |
| 20260506071007 | 17 | 154 | 0.0 | 0.0 | 0.00 | 0.00 | 0.00 | 83 | 1012.5 |
| 20260506062505 | 16 | 121 | 0.0 | 0.0 | 0.00 | 0.00 | 0.00 | 79 | 1012.5 |
| 20260506062005 | 16 | 121 | 0.0 | 0.0 | 0.00 | 0.00 | 0.00 | 79 | 1012.5 |
| 20260506061505 | 16 | 121 | 0.0 | 0.0 | 0.00 | 0.00 | 0.00 | 77 | 1012.5 |
| 20260506061006 | 16 | 121 | 0.0 | 0.0 | 0.00 | 0.00 | 0.00 | 77 | 1012.5 |
| 20260506060505 | 17 | 121 | 0.0 | 0.0 | 0.00 | 0.00 | 0.00 | 76 | 1012.5 |
| 20260506050505 | 18 | 188 | 0.0 | 1.6 | 0.00 | 0.00 | 0.00 | 66 | 1012.1 |
| 20260506045005 | 18 | 179 | 0.0 | 4.8 | 0.00 | 0.00 | 0.00 | 64 | 1012.6 |
| 20260506044005 | 18 | 132 | 1.6 | 4.8 | 0.00 | 0.00 | 0.00 | 63 | 1012.6 |
| 20260506043506 | 19 | 118 | 1.6 | 3.2 | 0.00 | 0.00 | 0.00 | 62 | 1012.6 |
| 20260506043005 | 19 | 159 | 1.6 | 3.2 | 0.00 | 0.00 | 0.00 | 62 | 1012.6 |
| 20260506042505 | 19 | 134 | 0.0 | 0.0 | 0.00 | 0.00 | 0.00 | 61 | 1012.6 |
| 20260506042006 | 19 | 153 | 0.0 | 1.6 | 0.00 | 0.00 | 0.00 | 60 | 1012.6 |
| 20260506041506 | 19 | 224 | 0.0 | 1.6 | 0.00 | 0.00 | 0.00 | 60 | 1012.6 |
| 20260506041005 | 19 | 191 | 0.0 | 3.2 | 0.00 | 0.00 | 0.00 | 60 | 1012.6 |
| 20260506040506 | 20 | 138 | 0.0 | 3.2 | 0.00 | 0.00 | 0.00 | 59 | 1012.6 |
| 20260506035506 | 20 | 154 | 1.6 | 4.8 | 0.00 | 0.00 | 0.00 | 58 | 1012.6 |
| 20260506035005 | 20 | 169 | 1.6 | 9.7 | 0.00 | 0.00 | 0.00 | 58 | 1012.6 |
| 20260506034506 | 20 | 125 | 3.2 | 9.7 | 0.00 | 0.00 | 0.00 | 58 | 1012.6 |
| 20260506034005 | 20 | 163 | 3.2 | 4.8 | 0.00 | 0.00 | 0.00 | 57 | 1012.6 |
| 20260506033505 | 20 | 137 | 3.2 | 8.0 | 0.00 | 0.00 | 0.00 | 57 | 1012.6 |
| 20260506033005 | 20 | 199 | 1.6 | 8.0 | 0.00 | 0.00 | 0.00 | 57 | 1012.6 |
| 20260506032005 | 20 | 128 | 1.6 | 4.8 | 0.00 | 0.00 | 0.00 | 57 | 1012.6 |
| 20260506031506 | 20 | 128 | 0.0 | 3.2 | 0.00 | 0.00 | 0.00 | 56 | 1012.6 |
| 20260506030505 | 20 | 142 | 0.0 | 4.8 | 0.00 | 0.00 | 0.00 | 56 | 1012.6 |
| 20260506030006 | 20 | 100 | 1.6 | 4.8 | 0.00 | 0.00 | 0.00 | 55 | 1012.6 |
| 20260506025505 | 20 | 132 | 1.6 | 3.2 | 0.00 | 0.00 | 0.00 | 55 | 1012.6 |
| 20260506025005 | 20 | 123 | 1.6 | 8.0 | 0.00 | 0.00 | 0.00 | 54 | 1012.6 |
| 20260506024505 | 20 | 139 | 3.2 | 4.8 | 0.00 | 0.00 | 0.00 | 54 | 1012.6 |